Weather History for KFBL - August, 2013

Change the Weather History Date:

Friday, August 2, 2013

  Actual Average Record
Temperature  
Mean Temperature 66 °F -  
Max Temperature 75 °F 83 °F 101 °F (1988)
Min Temperature 57 °F 59 °F 44 °F (1971)
Cooling Degree Days 1    
Growing Degree Days 16 (Base 50)    
Moisture  
Dew Point 57 °F    
Average Humidity 72    
Maximum Humidity 100    
Minimum Humidity 47    
Precipitation  
Precipitation 0.00 in - - ()
Sea Level Pressure  
Sea Level Pressure 29.95 in    
Wind  
Wind Speed 3 mph (NW)    
Max Wind Speed 10 mph    
Max Gust Speed 21 mph    
Visibility 10 miles    
Events      
Averages and records for this station are not official NWS values.
T = Trace of Precipitation, MM = Missing Value Source: NWS Daily Summary

Daily Weather History Graph

Daily Weather History Graph

Search for Another Location

Airport or City:

Trip Planner

Search our weather history database for the weather conditions in past years. The results will help you decide how hot, cold, wet, or windy it might be!

Date:

Astronomy

Aug. 02, 2013 Rise Set
Actual Time 6:01 AM CDT 8:36 PM CDT
Civil Twilight 5:28 AM CDT 9:09 PM CDT
Nautical Twilight 4:47 AM CDT 9:50 PM CDT
Astronomical Twilight 4:00 AM CDT 10:37 PM CDT
Moon 2:21 AM CDT (8/2) 5:36 PM CDT (8/2)
Length of Visible Light 15h 40m
Length of Day
14h 34m
Waning Crescent, 15% of the Moon is Illuminated
Aug 2
Waning Crescent
Aug 6
New
Aug 14
First Quarter
Aug 20
Full
Aug 28
Last Quarter

Hourly Weather History & Observations

Time (CDT) Temp. Dew Point Humidity Pressure Visibility Wind Dir Wind Speed Gust Speed Precip Events Conditions
12:14 AM 64.4 °F 62.6 °F 94% 29.88 in 10.0 mi Calm Calm - N/A   Scattered Clouds
12:34 AM 62.6 °F 62.6 °F 100% 29.87 in 10.0 mi Calm Calm - N/A   Clear
12:54 AM 64.4 °F 62.6 °F 94% 29.87 in 10.0 mi NW 4.6 mph - N/A   Clear
1:14 AM 64.4 °F 60.8 °F 88% 29.88 in 10.0 mi WNW 5.8 mph - N/A   Clear
1:34 AM 64.4 °F 60.8 °F 88% 29.88 in 10.0 mi WNW 3.5 mph - N/A   Clear
1:54 AM 62.6 °F 59.0 °F 88% 29.89 in 10.0 mi WNW 3.5 mph - N/A   Clear
2:13 AM 62.6 °F 59.0 °F 88% 29.90 in 10.0 mi West 5.8 mph - N/A   Clear
2:34 AM 62.6 °F 57.2 °F 82% 29.90 in 10.0 mi Calm Calm - N/A   Clear
2:54 AM 62.6 °F 57.2 °F 82% 29.89 in 10.0 mi Calm Calm - N/A   Clear
3:14 AM 60.8 °F 57.2 °F 88% 29.89 in 10.0 mi West 3.5 mph - N/A   Clear
3:34 AM 59.0 °F 57.2 °F 94% 29.89 in 10.0 mi West 3.5 mph - N/A   Clear
3:54 AM 60.8 °F 57.2 °F 88% 29.90 in 10.0 mi Calm Calm - N/A   Clear
4:14 AM 59.0 °F 57.2 °F 94% 29.90 in 10.0 mi West 3.5 mph - N/A   Clear
4:33 AM 59.0 °F 57.2 °F 94% 29.89 in 10.0 mi West 3.5 mph - N/A   Clear
4:54 AM 57.2 °F 55.4 °F 94% 29.89 in 10.0 mi Calm Calm - N/A   Clear
5:14 AM 59.0 °F 55.4 °F 88% 29.90 in 10.0 mi Calm Calm - N/A   Clear
5:34 AM 60.8 °F 55.4 °F 82% 29.90 in 10.0 mi WNW 4.6 mph - N/A   Clear
5:54 AM 60.8 °F 55.4 °F 82% 29.91 in 10.0 mi NW 4.6 mph - N/A   Clear
6:14 AM 59.0 °F 55.4 °F 88% 29.91 in 10.0 mi NW 5.8 mph - N/A   Clear
6:34 AM 59.0 °F 55.4 °F 88% 29.91 in 10.0 mi NNW 5.8 mph - N/A   Clear
6:54 AM 60.8 °F 57.2 °F 88% 29.92 in 10.0 mi Calm Calm - N/A   Clear
7:14 AM 62.6 °F 57.2 °F 82% 29.92 in 10.0 mi Calm Calm - N/A   Clear
7:34 AM 62.6 °F 57.2 °F 82% 29.93 in 10.0 mi Calm Calm - N/A   Clear
7:54 AM 64.4 °F 57.2 °F 77% 29.94 in 10.0 mi Calm Calm - N/A   Clear
8:14 AM 66.2 °F 59.0 °F 78% 29.94 in 10.0 mi NNW 3.5 mph - N/A   Clear
8:33 AM 66.2 °F 59.0 °F 78% 29.94 in 10.0 mi NNW 3.5 mph - N/A   Clear
8:54 AM 66.2 °F 59.0 °F 78% 29.94 in 10.0 mi Calm Calm - N/A   Clear
9:14 AM 69.8 °F 60.8 °F 73% 29.94 in 10.0 mi NNW 3.5 mph - N/A   Clear
9:34 AM 69.8 °F 59.0 °F 68% 29.94 in 10.0 mi North 5.8 mph - N/A   Clear
9:53 AM 69.8 °F 59.0 °F 68% 29.94 in 10.0 mi North 8.1 mph - N/A   Clear
10:14 AM 71.6 °F 59.0 °F 64% 29.95 in 10.0 mi NNW 8.1 mph - N/A   Clear
10:34 AM 71.6 °F 57.2 °F 60% 29.94 in 10.0 mi North 8.1 mph - N/A   Clear
10:54 AM 73.4 °F 57.2 °F 57% 29.94 in 10.0 mi North 8.1 mph - N/A   Clear
11:14 AM 73.4 °F 55.4 °F 53% 29.95 in 10.0 mi NNW 8.1 mph - N/A   Clear
11:34 AM 73.4 °F 55.4 °F 53% 29.95 in 10.0 mi Calm Calm - N/A   Clear
11:54 AM 73.4 °F 55.4 °F 53% 29.95 in 10.0 mi NNW 10.4 mph 18.4 mph N/A   Clear
12:14 PM 73.4 °F 57.2 °F 57% 29.96 in 10.0 mi North 3.5 mph 17.3 mph N/A   Clear
12:34 PM 73.4 °F 57.2 °F 57% 29.95 in 10.0 mi NNW 9.2 mph 17.3 mph N/A   Clear
12:54 PM 73.4 °F 57.2 °F 57% 29.95 in 10.0 mi North 3.5 mph 20.7 mph N/A   Clear
1:14 PM 73.4 °F 57.2 °F 57% 29.96 in 10.0 mi NNW 4.6 mph - N/A   Clear
1:34 PM 73.4 °F 55.4 °F 53% 29.97 in 10.0 mi NNW 3.5 mph - N/A   Clear
1:54 PM 73.4 °F 53.6 °F 50% 29.97 in 10.0 mi NW 6.9 mph - N/A   Clear
2:14 PM 75.2 °F 55.4 °F 50% 29.98 in 10.0 mi NNW 5.8 mph - N/A   Clear
2:34 PM 73.4 °F 55.4 °F 53% 29.98 in 10.0 mi West 6.9 mph - N/A   Clear
2:54 PM 73.4 °F 55.4 °F 53% 29.98 in 10.0 mi NW 5.8 mph - N/A   Clear
3:14 PM 73.4 °F 57.2 °F 57% 29.97 in 10.0 mi West 5.8 mph - N/A   Scattered Clouds
3:33 PM 75.2 °F 55.4 °F 50% 29.97 in 10.0 mi NW 5.8 mph - N/A   Scattered Clouds
3:54 PM 75.2 °F 55.4 °F 50% 29.97 in 10.0 mi West 6.9 mph - N/A   Scattered Clouds
4:14 PM 75.2 °F 53.6 °F 47% 29.97 in 10.0 mi WNW 8.1 mph - N/A   Clear
4:34 PM 73.4 °F 53.6 °F 50% 29.97 in 10.0 mi NNW 5.8 mph - N/A   Clear
4:54 PM 73.4 °F 55.4 °F 53% 29.98 in 10.0 mi NNW 5.8 mph - N/A   Clear
5:14 PM 73.4 °F 55.4 °F 53% 29.97 in 10.0 mi NNW 5.8 mph - N/A   Clear
5:34 PM 73.4 °F 55.4 °F 53% 29.98 in 10.0 mi NW 6.9 mph - N/A   Clear
5:54 PM 73.4 °F 55.4 °F 53% 29.98 in 10.0 mi NW 4.6 mph - N/A   Clear
6:14 PM 71.6 °F 55.4 °F 57% 29.98 in 10.0 mi NW 3.5 mph - N/A   Clear
6:34 PM 71.6 °F 55.4 °F 57% 29.98 in 10.0 mi NNW 4.6 mph - N/A   Scattered Clouds
6:54 PM 73.4 °F 55.4 °F 53% 30.00 in 10.0 mi NW 8.1 mph - N/A   Clear
7:14 PM 71.6 °F 53.6 °F 53% 29.99 in 10.0 mi NNW 3.5 mph - N/A   Clear
7:34 PM 71.6 °F 55.4 °F 57% 30.00 in 10.0 mi NNW 4.6 mph - N/A   Clear
7:54 PM 69.8 °F 55.4 °F 60% 30.00 in 10.0 mi Calm Calm - N/A   Clear
8:14 PM 68.0 °F 55.4 °F 64% 30.00 in 10.0 mi NW 3.5 mph - N/A   Clear
8:34 PM 66.2 °F 55.4 °F 68% 30.00 in 10.0 mi Calm Calm - N/A   Clear
8:54 PM 64.4 °F 55.4 °F 73% 30.01 in 10.0 mi Calm Calm - N/A   Clear
9:14 PM 62.6 °F 55.4 °F 77% 30.02 in 10.0 mi WNW 3.5 mph - N/A   Clear
9:34 PM 60.8 °F 55.4 °F 82% 30.03 in 10.0 mi NW 3.5 mph - N/A   Clear
9:54 PM 60.8 °F 53.6 °F 77% 30.04 in 10.0 mi Calm Calm - N/A   Clear
10:14 PM 59.0 °F 53.6 °F 82% 30.04 in 10.0 mi Calm Calm - N/A   Clear
10:34 PM 57.2 °F 55.4 °F 94% 30.05 in 10.0 mi Calm Calm - N/A   Clear
10:54 PM 57.2 °F 53.6 °F 88% 30.05 in 10.0 mi Calm Calm - N/A   Clear
11:13 PM 57.2 °F 53.6 °F 88% 30.06 in 10.0 mi Calm Calm - N/A   Clear
11:34 PM 57.2 °F 53.6 °F 88% 30.06 in 10.0 mi Calm Calm - N/A   Clear
11:54 PM 57.2 °F 53.6 °F 88% 30.06 in 10.0 mi Calm Calm - N/A   Clear